Powrót do katalogu

ISIS 1 DEB

AktywnyPO
NORAD 36301·DEBRIS·🇨🇦 Canada

Wystrzelony Jan 30, 1969 z Vandenberg Space Force Base

Loading…

Następne Przeloty (najbliższe 24 godziny)

TLE

ŚwieżeSource: Space-Track

Epoka: Sep 13, 2026, 11:36 UTC

1 36301U 69009D   26256.48380515  .00004025  00000-0  21062-2 0  9996
2 36301  88.3651  79.2107 1249402 298.9352  73.8765 12.28600239724734

Śledź ISIS 1 DEB w czasie rzeczywistym z AllMySat

Download on the App Store